Nashville, TN

7:20 PM CDT on October 23, 2017 (GMT -0500)
Nashville International

Weather History for KBNA - June, 2013

Change the Weather History Date:

Thursday, June 13, 2013

  Actual Average Record
Temperature  
Mean Temperature 80 °F 75 °F  
Max Temperature 90 °F 86 °F 97 °F (2016)
Min Temperature 69 °F 65 °F 47 °F (1903)
Degree Days  
Heating Degree Days 0    
Month to date heating degree days 0  
Since 1 June heating degree days 0  
Since 1 July heating degree days 3532  
Cooling Degree Days 15    
Month to date cooling degree days 139  
Year to date cooling degree days 346  
Since 1 June cooling degree days 139  
Growing Degree Days 31 (Base 50)    
Moisture  
Dew Point 68 °F    
Average Humidity 60    
Maximum Humidity 69    
Minimum Humidity 51    
Precipitation  
Precipitation T in 0.14 in 2.36 in (1928)
Month to date precipitation 2.82 1.88  
Year to date precipitation 27.26 23.18  
Snow  
Snow 0.00 in - 0.00 in (2002)
Month to date snowfall 0.0  
Since 1 June snowfall 0.0  
Since 1 July snowfall 1.3  
Snow Depth 0.00 in    
Sea Level Pressure  
Sea Level Pressure 29.86 in    
Wind  
Wind Speed 11 mph (WNW)    
Max Wind Speed 23 mph    
Max Gust Speed 30 mph    
Visibility 10 miles    
Events      
T = Trace of Precipitation, MM = Missing Value Source: NWS Daily Summary

Daily Weather History Graph

Daily Weather History Graph

Search for Another Location

Airport or City:

Trip Planner

Search our weather history database for the weather conditions in past years. The results will help you decide how hot, cold, wet, or windy it might be!

Date:

Astronomy

Jun. 13, 2013 Rise Set
Actual Time 5:29 AM CDT 8:04 PM CDT
Civil Twilight 4:58 AM CDT 8:35 PM CDT
Nautical Twilight 4:21 AM CDT 9:12 PM CDT
Astronomical Twilight 3:39 AM CDT 9:54 PM CDT
Moon 9:58 AM CDT (6/13) 11:19 PM CDT (6/13)
Length of Visible Light 15h 36m
Length of Day
14h 35m
Waxing Crescent, 22% of the Moon is Illuminated
Jun 13
Waxing Crescent
Jun 16
First Quarter
Jun 23
Full
Jun 29
Last Quarter
Jul 8
New

Hourly Weather History & Observations

Time (CDT) Temp. Heat Index Dew Point Humidity Pressure Visibility Wind Dir Wind Speed Gust Speed Precip Events Conditions
12:53 AM 82.0 °F 85.9 °F 70.0 °F 67% 29.88 in 10.0 mi SW 8.1 mph - N/A   Clear
1:53 AM 82.0 °F 85.9 °F 70.0 °F 67% 29.90 in 10.0 mi WSW 5.8 mph 17.3 mph N/A   Clear
2:53 AM 81.0 °F 84.4 °F 70.0 °F 69% 29.89 in 10.0 mi SW 8.1 mph - N/A   Clear
3:53 AM 80.1 °F 83.2 °F 70.0 °F 71% 29.88 in 10.0 mi SW 11.5 mph 19.6 mph N/A   Clear
4:53 AM 80.1 °F 83.2 °F 70.0 °F 71% 29.86 in 10.0 mi SW 10.4 mph 24.2 mph N/A   Clear
5:53 AM 80.1 °F 83.2 °F 70.0 °F 71% 29.86 in 10.0 mi WSW 11.5 mph 19.6 mph N/A   Partly Cloudy
6:53 AM 80.1 °F 83.2 °F 70.0 °F 71% 29.85 in 10.0 mi WSW 9.2 mph 18.4 mph N/A   Scattered Clouds
7:53 AM 82.0 °F 86.3 °F 71.1 °F 69% 29.84 in 10.0 mi SW 5.8 mph 17.3 mph N/A   Clear
8:47 AM 82.4 °F 87.2 °F 71.6 °F 70% 29.86 in 10.0 mi West 9.2 mph 21.9 mph N/A   Mostly Cloudy
8:53 AM 82.9 °F 87.5 °F 71.1 °F 67% 29.83 in 10.0 mi WSW 10.4 mph 21.9 mph N/A   Mostly Cloudy
9:53 AM 84.9 °F 90.7 °F 72.0 °F 65% 29.83 in 10.0 mi West 9.2 mph 20.7 mph N/A   Mostly Cloudy
10:53 AM 84.9 °F 90.7 °F 72.0 °F 65% 29.83 in 10.0 mi West 13.8 mph 25.3 mph N/A   Mostly Cloudy
11:53 AM 87.1 °F 93.6 °F 72.0 °F 61% 29.82 in 10.0 mi West 10.4 mph 25.3 mph N/A   Mostly Cloudy
12:53 PM 90.0 °F 95.4 °F 70.0 °F 52% 29.81 in 10.0 mi WNW 20.7 mph 28.8 mph N/A   Scattered Clouds
1:53 PM 84.9 °F 88.8 °F 69.1 °F 59% 29.82 in 10.0 mi WNW 16.1 mph 27.6 mph N/A   Mostly Cloudy
2:53 PM 84.9 °F 87.1 °F 66.0 °F 53% 29.84 in 10.0 mi NNW 21.9 mph 27.6 mph 0.00 in   Mostly Cloudy
3:53 PM 84.9 °F 86.6 °F 64.9 °F 51% 29.84 in 10.0 mi NNW 11.5 mph 21.9 mph N/A   Mostly Cloudy
4:53 PM 82.0 °F 83.8 °F 64.9 °F 56% 29.86 in 10.0 mi NNW 16.1 mph 27.6 mph N/A   Mostly Cloudy
5:53 PM 82.0 °F 83.4 °F 64.0 °F 54% 29.85 in 10.0 mi NW 15.0 mph 20.7 mph N/A   Mostly Cloudy
6:53 PM 79.0 °F - 64.0 °F 60% 29.87 in 10.0 mi NNW 13.8 mph 24.2 mph N/A   Scattered Clouds
7:53 PM 77.0 °F - 64.0 °F 64% 29.88 in 10.0 mi NNW 9.2 mph - N/A   Partly Cloudy
8:53 PM 75.0 °F - 63.0 °F 66% 29.91 in 10.0 mi NNW 8.1 mph - N/A   Partly Cloudy
9:53 PM 73.9 °F - 61.0 °F 64% 29.93 in 10.0 mi North 6.9 mph - N/A   Partly Cloudy
10:53 PM 72.0 °F - 59.0 °F 64% 29.95 in 10.0 mi North 5.8 mph - N/A   Clear
11:53 PM 71.1 °F - 57.9 °F 63% 29.94 in 10.0 mi NNW 5.8 mph - N/A   Clear